This is the latest recevied weather packets stored in our database for station/object N3AVN. If no packets are shown the sender has not sent any weather packets the latest 1 day(s).
| Time | Temp. | Humidity | Pressure | Rain* | Wind** | Luminosity | Snow |
|---|---|---|---|---|---|---|---|
| 1778041071 | 17.22° C | 72% | 1008.3 hPa | 0 mm | 0.45 m/s, 66° | 0 W/m² | - |
| 1778040767 | 17.22° C | 72% | 1008.3 hPa | 0 mm | 2.24 m/s, 160° | 0 W/m² | - |
| 1778040465 | 17.22° C | 72% | 1008.4 hPa | 0 mm | 1.34 m/s, 196° | 0 W/m² | - |
| 1778040162 | 17.22° C | 72% | 1008.4 hPa | 0 mm | 0 m/s | 0 W/m² | - |
| 1778039858 | 17.22° C | 72% | 1008.4 hPa | 0 mm | 1.34 m/s, 330° | 0 W/m² | - |
| 1778039555 | 17.22° C | 72% | 1008.5 hPa | 0 mm | 0.89 m/s, 127° | 0 W/m² | - |
| 1778039252 | 17.22° C | 71% | 1008.2 hPa | 0 mm | 0.89 m/s, 191° | 0 W/m² | - |
| 1778038950 | 17.22° C | 71% | 1008.3 hPa | 0 mm | 0 m/s | 0 W/m² | - |
| 1778038647 | 17.22° C | 71% | 1008.4 hPa | 0 mm | 1.34 m/s, 175° | 0 W/m² | - |
| 1778038344 | 17.22° C | 71% | 1008.5 hPa | 0 mm | 0 m/s | 0 W/m² | - |
| 1778038041 | 17.22° C | 71% | 1008.4 hPa | 0 mm | 0.89 m/s, 95° | 0 W/m² | - |
| 1778037737 | 17.22° C | 71% | 1008.5 hPa | 0 mm | 0.89 m/s, 210° | 0 W/m² | - |
| 1778037434 | 17.22° C | 70% | 1008.5 hPa | 0 mm | 2.24 m/s, 171° | 0 W/m² | - |
| 1778037132 | 17.22° C | 70% | 1008.4 hPa | 0 mm | 0.45 m/s, 180° | 0 W/m² | - |
| 1778036830 | 17.22° C | 69% | 1008.4 hPa | 0 mm | 2.24 m/s, 120° | 0 W/m² | - |
| 1778036527 | 17.78° C | 69% | 1008.5 hPa | 0 mm | 1.34 m/s, 231° | 0 W/m² | - |
| 1778036223 | 17.78° C | 69% | 1008.3 hPa | 0 mm | 0.89 m/s, 132° | 0 W/m² | - |
| 1778035920 | 17.78° C | 68% | 1008.2 hPa | 0 mm | 1.79 m/s, 119° | 0 W/m² | - |
| 1778035617 | 17.78° C | 68% | 1008.5 hPa | 0 mm | 0 m/s | 0 W/m² | - |
| 1778035313 | 17.78° C | 68% | 1008.2 hPa | 0 mm | 1.79 m/s, 244° | 0 W/m² | - |
| 1778035009 | 17.78° C | 67% | 1008.4 hPa | 0 mm | 0.45 m/s, 15° | 0 W/m² | - |
| 1778034707 | 18.33° C | 66% | 1008.1 hPa | 0 mm | 0.45 m/s, 90° | 0 W/m² | - |
| 1778034404 | 18.33° C | 66% | 1008.1 hPa | 0 mm | 0.89 m/s, 146° | 0 W/m² | - |
| 1778034101 | 17.78° C | 66% | 1008.1 hPa | 0 mm | 0.89 m/s, 356° | 0 W/m² | - |
| 1778033799 | 17.78° C | 66% | 1008.1 hPa | 0 mm | 1.79 m/s, 62° | 0 W/m² | - |
* Rain latest hour (hover to see other rain measurements)
** Current wind speed in m/s (hover to see current wind gust speed)